Temperature
4 5 5 6 6 6 6 6 6 5 5 5 5 6 6 6 6 6 6 6 6 6 6 6 6 6 6 6 6 6 6 6 6 6 6 6 6 6 7 7 7 7 7
4 4 4 5 5 5 5 5 5 5 5 5 5 5 5 5 5 5 5 5 5 5 5 5 5 5 5 5 5 5 5 5 5 5 5 5 5 6 6 6 6 7 7
3 3 4 4 4 4 4 4 5 5 5 5 5 5 5 5 5 5 5 5 5 5 5 5 5 5 5 5 5 5 5 5 5 5 4 4 5 4 5 6 6 6 6
3 3 3 3 4 4 4 4 4 4 4 4 4 4 4 4 4 4 4 4 4 4 4 4 4 4 4 4 4 4 4 4 4 4 4 4 4 4 4 5 5 5 6
2 2 3 3 3 3 3 3 3 3 3 4 4 4 4 4 4 4 4 4 4 4 4 4 4 4 4 4 4 4 4 4 4 4 4 4 4 4 3 3 4 4 5
1 2 2 3 3 3 3 3 3 3 3 3 3 3 3 3 3 3 3 3 3 3 3 3 3 3 3 3 3 3 3 3 3 3 3 3 3 3 3 3 3 3 4
1 1 2 2 2 2 3 3 3 3 3 2 3 3 3 3 3 3 2 3 3 3 3 3 3 3 3 3 3 3 3 3 3 3 3 3 2 3 3 3 2 2 3
0 0 1 1 1 2 2 2 2 2 2 2 2 2 2 2 2 2 2 2 2 2 2 2 2 2 2 2 2 2 2 2 2 2 2 2 2 2 2 2 2 2 2
0 0 0 1 1 1 1 2 2 2 2 2 2 2 1 1 1 2 1 1 1 1 1 1 2 2 2 1 1 1 1 1 1 1 1 1 2 2 2 2 2 2 1
-0 -0 -0 0 0 0 1 1 1 1 1 1 1 1 1 1 1 1 1 1 1 1 1 1 1 1 1 1 1 1 1 1 1 1 1 1 1 1 1 1 1 1 1
-2 -1 -1 -0 -0 -0 0 0 1 1 1 1 1 1 0 0 0 0 0 0 0 0 0 -0 0 0 0 0 0 0 0 0 0 0 0 0 1 1 1 1 1 0 0
-2 -2 -2 -2 -1 -1 -1 -0 -0 -0 -0 -0 -0 -0 -0 -0 -0 -0 -0 -0 -0 -1 -1 -1 -1 -1 -1 -1 -0 -0 -0 -0 -0 -0 -0 -0 0 0 0 -0 -0 -0 -0
-3 -3 -3 -2 -2 -2 -2 -1 -1 -1 -1 -1 -1 -1 -1 -1 -1 -1 -1 -1 -1 -1 -1 -2 -2 -2 -2 -1 -1 -1 -1 -1 -1 -1 -1 -1 -1 -1 -1 -1 -1 -1 -1
-4 -4 -3 -3 -3 -3 -2 -2 -2 -2 -1 -1 -1 -1 -1 -1 -1 -1 -2 -2 -2 -2 -2 -2 -2 -2 -2 -2 -2 -2 -2 -2 -2 -1 -1 -1 -1 -1 -1 -1 -1 -1 -1
-4 -4 -4 -4 -4 -3 -3 -3 -3 -2 -2 -2 -2 -2 -2 -2 -2 -2 -2 -2 -2 -2 -2 -3 -3 -3 -3 -3 -2 -2 -2 -2 -2 -2 -2 -2 -2 -2 -2 -2 -2 -2 -2
-5 -5 -5 -5 -4 -4 -4 -4 -3 -3 -3 -3 -3 -2 -2 -3 -3 -3 -3 -3 -3 -3 -3 -3 -3 -3 -3 -3 -3 -3 -3 -3 -3 -3 -3 -3 -3 -3 -3 -3 -3 -3 -3
-5 -5 -5 -5 -5 -5 -5 -4 -4 -4 -4 -3 -3 -3 -3 -3 -3 -3 -3 -3 -3 -3 -3 -3 -4 -4 -3 -4 -4 -4 -4 -4 -4 -4 -4 -4 -4 -4 -4 -3 -3 -3 -3
-6 -6 -6 -6 -6 -5 -5 -5 -5 -4 -4 -4 -4 -4 -4 -4 -4 -4 -4 -4 -4 -4 -4 -4 -4 -4 -4 -4 -4 -4 -4 -4 -4 -4 -4 -5 -5 -4 -4 -4 -4 -4 -4
-6 -6 -6 -6 -6 -6 -6 -6 -5 -5 -5 -5 -5 -5 -5 -5 -5 -5 -5 -5 -5 -5 -5 -5 -5 -5 -5 -5 -5 -5 -5 -5 -5 -5 -5 -5 -5 -5 -5 -5 -5 -5 -5
-7 -7 -7 -7 -6 -6 -6 -6 -6 -6 -6 -6 -6 -6 -6 -5 -5 -5 -5 -5 -5 -5 -5 -5 -6 -6 -6 -6 -6 -6 -6 -6 -6 -6 -6 -6 -6 -6 -6 -6 -6 -6 -6
-7 -7 -7 -7 -7 -7 -7 -7 -6 -6 -6 -6 -6 -6 -6 -6 -6 -6 -6 -6 -6 -6 -6 -6 -6 -6 -6 -6 -6 -6 -7 -7 -7 -7 -7 -7 -7 -7 -7 -7 -7 -7 -6
-7 -7 -7 -7 -7 -7 -7 -7 -7 -7 -7 -7 -7 -7 -7 -7 -7 -7 -7 -7 -7 -7 -7 -7 -7 -7 -7 -7 -7 -7 -7 -7 -7 -7 -8 -8 -7 -7 -7 -7 -7 -7 -7
-8 -8 -8 -8 -8 -8 -8 -8 -7 -7 -7 -7 -7 -8 -8 -8 -8 -8 -8 -8 -8 -8 -8 -8 -8 -8 -8 -8 -8 -8 -8 -8 -8 -8 -8 -8 -8 -8 -8 -8 -8 -8 -8
-9 -9 -8 -8 -8 -8 -8 -8 -8 -8 -8 -8 -8 -8 -8 -8 -8 -8 -9 -9 -9 -9 -9 -9 -9 -9 -9 -9 -9 -9 -9 -9 -9 -9 -9 -9 -8 -8 -9 -8 -8 -8 -9
-9 -9 -9 -9 -9 -9 -9 -9 -9 -9 -9 -9 -9 -9 -9 -9 -9 -9 -9 -9 -9 -9 -9 -9 -9 -9 -10 -10 -10 -10 -10 -10 -9 -9 -9 -9 -9 -9 -9 -9 -9 -9 -9
-10 -10 -10 -10 -9 -9 -9 -9 -9 -9 -9 -10 -10 -10 -10 -10 -10 -10 -10 -10 -10 -10 -10 -10 -10 -10 -10 -10 -10 -10 -10 -10 -10 -10 -10 -10 -10 -10 -10 -10 -10 -10 -10
Wind_Speed
3 2 2 2 4 4 5 6 5 5 4 4 3 3 2 2 1 1 2 2 2 3 3 2 2 2 2 3 3 2 3 2 1 1 1 1 1 2 2 2 2 2 2
3 2 1 2 3 4 5 5 6 5 5 4 3 2 2 2 2 1 1 2 3 3 3 3 3 3 2 3 4 3 2 2 2 2 2 2 2 2 2 2 2 3 2
4 3 2 3 4 4 5 5 5 5 5 5 3 2 2 1 2 2 2 3 3 4 3 4 3 3 3 4 4 4 4 3 3 2 2 2 3 1 2 3 3 3 3
3 3 2 3 4 4 4 5 5 5 5 5 5 5 4 4 3 3 3 3 4 4 4 4 4 4 4 4 4 4 4 5 4 3 3 3 2 2 2 2 3 3 3
3 3 3 3 3 3 3 4 4 5 5 5 5 6 5 4 3 3 3 3 3 4 5 5 5 4 4 4 5 5 5 5 5 4 3 3 3 4 4 4 3 3 3
3 3 3 2 2 1 2 3 4 4 4 5 5 6 6 5 4 4 4 3 3 3 5 5 5 5 5 5 5 5 6 5 6 5 4 4 3 4 4 5 4 4 3
3 3 3 3 2 1 1 2 3 4 4 5 5 5 6 6 6 6 5 4 4 4 5 5 5 5 6 6 5 5 5 6 6 6 5 5 5 4 4 5 4 5 4
3 3 3 3 3 2 2 3 3 4 4 5 5 5 5 4 4 5 5 5 5 4 5 5 6 6 6 6 6 5 6 5 6 7 7 5 5 5 5 4 4 4 5
3 3 3 3 3 3 3 3 4 4 4 5 4 5 5 5 5 5 5 4 4 4 4 5 5 6 6 6 6 5 6 6 6 6 7 6 5 5 5 5 5 5 5
3 3 3 4 4 4 4 3 3 4 4 4 4 4 5 5 4 4 5 5 4 4 5 5 5 5 6 6 6 6 6 7 7 6 7 6 5 5 5 5 5 6 6
5 5 4 4 4 4 4 4 3 3 3 3 4 4 4 4 4 5 5 5 4 5 5 5 5 6 6 6 6 7 7 8 8 7 8 8 7 5 5 5 5 6 6
5 5 5 5 5 5 5 4 4 3 3 3 3 3 4 4 4 5 5 5 5 5 5 5 5 5 6 6 7 7 7 8 9 8 8 8 6 8 6 6 6 6 6
5 6 6 6 6 6 5 5 4 4 3 3 2 3 3 4 5 5 5 5 5 5 5 5 6 6 6 7 7 8 8 8 8 8 8 8 8 8 7 7 7 6 6
5 6 7 7 6 6 6 5 5 4 4 3 2 3 4 4 4 4 5 5 5 5 5 5 6 6 6 7 7 7 8 8 8 8 7 8 8 9 8 7 7 7 7
6 7 7 8 7 7 6 6 5 4 4 3 3 3 4 3 3 3 4 4 4 5 5 5 5 6 6 6 7 7 7 8 8 7 7 8 9 9 8 7 7 7 7
7 8 8 8 8 8 7 6 6 5 4 4 3 3 3 3 3 3 3 3 4 4 4 5 5 6 6 7 9 8 7 7 8 8 7 7 9 9 10 10 10 9 9
7 8 8 8 8 8 7 7 6 5 4 4 4 3 3 3 3 3 3 4 4 4 4 5 5 6 6 7 8 9 7 7 7 7 7 6 7 8 7 8 9 9 11
7 8 8 8 8 8 7 6 6 5 4 4 4 4 3 4 4 3 4 4 4 4 4 5 5 5 5 6 7 7 6 6 7 7 7 8 7 7 7 7 7 8 8
7 8 8 8 8 8 7 6 5 4 4 4 4 4 4 4 4 4 4 4 3 4 4 4 4 5 5 6 6 6 4 5 6 6 7 8 7 8 9 8 7 8 7
7 7 7 7 7 7 6 5 5 5 5 5 5 4 4 4 4 4 4 3 3 3 3 3 4 4 4 5 6 6 4 4 5 5 6 8 9 9 9 8 7 8 7
7 7 6 6 6 7 6 5 5 5 6 5 5 4 4 4 4 4 3 3 2 2 2 3 3 3 4 5 6 6 4 4 4 5 5 5 8 9 9 8 7 8 7
7 7 6 6 6 6 5 5 6 6 5 5 4 4 4 3 3 3 3 3 2 2 2 2 2 2 3 4 4 6 5 5 5 5 4 5 7 8 8 7 7 8 7
7 6 6 6 6 5 5 5 6 6 5 4 4 4 4 3 3 3 3 2 2 2 2 2 2 3 3 3 5 5 5 5 4 4 6 6 7 7 6 7 7 6 5
6 6 6 6 6 6 5 5 6 5 4 4 4 4 3 3 3 2 2 2 2 2 2 3 3 3 3 3 3 3 3 3 3 3 3 5 5 4 4 4 4 4 4
6 5 5 6 7 6 6 6 5 4 4 4 4 4 3 3 3 3 3 3 3 4 4 3 4 4 4 4 5 4 3 3 2 2 2 2 2 2 2 3 3 3 3
6 6 6 6 6 6 6 6 6 4 4 4 4 3 3 3 3 3 3 3 4 5 6 6 5 5 6 6 5 5 5 4 3 2 2 2 2 3 3 3 3 3 3
Wind_Direction
271 265 224 195 188 190 191 191 186 181 171 175 182 183 188 188 195 197 177 178 178 181 182 190 197 192 192 192 183 168 160 159 157 180 228 248 236 242 242 239 231 218 221
271 264 219 191 193 196 198 198 192 189 189 195 197 207 198 203 208 206 203 193 193 191 196 200 202 203 199 192 187 175 181 189 191 213 211 221 212 228 250 244 240 237 228
272 263 236 218 209 208 209 206 200 195 197 194 177 157 168 184 202 219 231 215 206 201 196 205 208 205 203 201 199 198 198 199 205 226 233 226 225 228 215 235 242 246 236
290 285 264 246 229 223 216 212 207 200 198 192 188 185 200 212 222 219 226 227 212 206 201 207 207 208 213 210 207 212 215 208 207 214 249 273 286 232 216 219 233 247 248
295 297 284 266 249 228 217 215 210 206 203 202 205 207 213 218 214 212 217 224 219 211 209 212 212 212 217 218 214 211 214 215 217 215 220 233 248 248 243 241 236 242 244
305 309 320 311 268 224 206 210 213 214 211 211 215 217 218 213 210 214 219 222 229 220 216 217 220 218 219 221 220 219 218 220 224 225 223 221 225 228 231 242 242 251 253
321 322 327 323 317 289 236 217 216 221 219 219 222 225 225 220 218 219 223 225 231 233 226 226 228 227 225 224 222 224 224 224 225 227 228 229 236 243 238 237 247 257 263
335 328 320 315 311 303 269 242 233 230 226 226 230 232 230 227 229 229 229 231 235 241 237 231 232 233 230 227 225 228 228 228 228 232 231 229 232 236 235 234 237 248 255
322 326 323 320 316 307 290 257 247 247 238 233 233 234 234 233 233 238 236 238 245 247 242 235 233 234 232 229 227 229 229 229 230 232 234 233 232 236 237 233 231 238 247
319 322 332 336 329 323 314 289 257 251 251 242 237 238 239 239 237 237 236 238 241 242 238 241 234 235 234 230 229 231 231 231 232 231 231 233 235 235 232 230 235 241 248
332 332 331 333 329 329 329 319 295 277 264 257 250 244 240 240 239 238 240 241 241 235 235 237 238 234 233 232 232 233 233 233 235 234 231 233 235 235 231 226 229 235 240
332 334 334 336 337 337 335 329 318 300 282 269 257 250 244 239 237 240 243 242 242 238 235 238 238 240 239 235 232 234 235 234 235 234 233 237 235 235 231 227 230 235 238
338 340 341 339 340 338 333 327 323 320 308 289 270 261 253 245 243 245 247 246 243 242 240 236 237 240 243 241 237 237 237 238 238 237 236 238 235 233 231 232 235 238 242
332 336 338 336 335 334 330 326 321 319 316 301 280 265 259 256 255 252 247 244 243 242 241 238 238 239 242 243 239 237 239 240 241 241 239 242 239 235 234 235 237 239 242
332 332 332 331 332 331 330 324 317 314 312 302 284 277 275 269 264 259 253 250 247 246 246 245 243 242 241 240 241 238 237 239 242 242 241 244 243 241 240 240 239 238 241
324 327 329 328 327 325 323 319 314 312 307 300 292 291 287 280 272 268 262 256 253 252 250 249 247 244 243 243 245 244 238 238 238 240 241 243 240 238 242 247 248 244 243
320 324 324 322 319 319 316 313 311 309 305 300 297 294 289 283 273 270 266 262 259 257 256 253 251 250 249 246 245 246 244 240 240 240 241 244 241 238 239 243 246 251 251
317 318 319 318 317 316 314 311 309 305 303 302 298 295 288 282 278 270 266 268 268 261 259 259 255 256 253 248 249 249 246 245 243 240 239 241 242 238 237 241 245 248 250
312 312 313 313 313 314 314 312 310 307 304 301 296 295 287 281 280 274 269 268 266 266 265 264 260 259 259 250 252 253 253 247 246 244 239 238 240 240 241 240 242 250 254
316 314 314 314 314 317 317 311 310 310 307 303 296 292 284 277 276 278 278 278 269 267 274 278 275 270 270 259 255 255 253 250 249 249 243 238 241 242 243 242 244 250 256
319 319 317 318 317 319 318 312 313 312 311 308 303 299 290 280 276 277 277 277 275 276 277 277 286 284 277 266 257 259 256 250 246 248 248 243 239 245 249 248 250 254 262
324 324 322 321 324 327 323 315 316 317 317 313 310 308 302 293 284 278 280 276 270 271 276 283 294 293 288 282 273 269 270 264 250 249 252 252 248 248 252 252 256 260 264
322 325 322 320 327 331 326 317 316 320 318 315 314 312 309 302 289 276 274 277 271 267 270 268 273 284 289 290 290 288 286 279 262 255 251 251 251 251 251 251 256 259 260
322 324 324 323 326 331 328 319 315 316 313 313 316 315 311 306 298 285 276 275 272 264 261 264 270 277 280 284 291 290 288 280 265 267 259 253 251 249 252 256 255 255 257
322 324 322 320 322 326 327 327 326 321 316 314 313 313 309 304 304 298 289 281 274 267 268 267 269 270 275 282 286 290 292 290 266 266 267 264 257 254 261 267 269 266 261
321 322 322 321 323 326 327 330 331 326 315 314 316 313 309 305 299 300 301 285 279 284 280 278 274 275 278 288 289 290 291 293 275 265 248 249 253 257 262 264 267 268 266
Height
1497 1497 1497 1498 1499 1501 1502 1504 1505 1507 1508 1509 1510 1512 1513 1514 1515 1516 1517 1518 1519 1520 1521 1522 1523 1524 1524 1525 1526 1527 1528 1529 1530 1531 1531 1532 1532 1532 1532 1533 1533 1534 1534
1495 1495 1495 1495 1496 1497 1499 1501 1502 1503 1505 1506 1507 1509 1510 1511 1512 1513 1514 1515 1516 1517 1518 1519 1520 1521 1521 1522 1523 1524 1525 1526 1527 1529 1529 1530 1531 1529 1529 1530 1530 1531 1532
1493 1493 1492 1493 1493 1494 1496 1497 1499 1500 1502 1503 1504 1506 1507 1508 1509 1509 1510 1511 1513 1514 1515 1516 1516 1517 1518 1519 1520 1521 1522 1523 1524 1526 1528 1528 1528 1527 1527 1526 1527 1528 1528
1491 1491 1491 1491 1491 1492 1493 1494 1496 1497 1499 1500 1501 1502 1503 1503 1504 1506 1507 1508 1509 1510 1511 1512 1513 1514 1515 1516 1517 1518 1519 1520 1521 1522 1523 1524 1524 1525 1525 1524 1524 1525 1525
1489 1489 1489 1489 1489 1490 1491 1492 1493 1494 1495 1496 1498 1499 1500 1500 1501 1502 1503 1504 1505 1506 1507 1508 1509 1510 1511 1512 1513 1514 1515 1516 1517 1518 1519 1520 1521 1521 1522 1522 1521 1521 1522
1488 1487 1487 1487 1487 1487 1488 1489 1490 1491 1492 1493 1494 1495 1496 1497 1498 1498 1499 1500 1500 1501 1503 1504 1505 1506 1507 1508 1509 1510 1511 1512 1513 1514 1515 1516 1517 1517 1518 1518 1518 1518 1518
1486 1486 1485 1485 1485 1485 1485 1486 1486 1487 1488 1489 1490 1491 1492 1493 1494 1494 1495 1496 1496 1497 1498 1499 1500 1502 1503 1504 1505 1506 1506 1507 1508 1509 1510 1511 1512 1513 1514 1514 1514 1514 1514
1485 1484 1484 1483 1483 1483 1483 1483 1483 1484 1484 1485 1486 1487 1488 1489 1489 1490 1491 1492 1492 1492 1493 1495 1496 1497 1498 1499 1500 1501 1502 1502 1503 1504 1505 1506 1507 1508 1509 1510 1511 1510 1510
1484 1483 1483 1482 1481 1481 1481 1480 1480 1481 1481 1481 1482 1483 1483 1484 1485 1486 1487 1487 1488 1488 1489 1490 1491 1492 1493 1494 1495 1496 1496 1497 1498 1499 1500 1501 1502 1503 1504 1505 1506 1508 1507
1483 1482 1481 1480 1480 1479 1478 1478 1478 1477 1478 1478 1478 1479 1479 1480 1480 1481 1482 1482 1483 1483 1484 1485 1486 1487 1488 1489 1490 1490 1491 1492 1493 1494 1495 1496 1498 1498 1499 1500 1501 1502 1502
1481 1480 1479 1478 1478 1477 1476 1475 1474 1474 1474 1474 1475 1475 1475 1476 1476 1477 1477 1478 1478 1479 1479 1480 1481 1482 1483 1484 1484 1485 1486 1487 1488 1489 1490 1491 1492 1493 1494 1494 1495 1496 1497
1480 1479 1477 1476 1475 1474 1473 1472 1471 1471 1471 1471 1471 1471 1472 1472 1472 1472 1473 1473 1473 1473 1474 1475 1475 1476 1477 1478 1479 1479 1480 1481 1482 1484 1485 1486 1487 1487 1488 1489 1489 1490 1491
1479 1477 1476 1474 1473 1471 1470 1469 1468 1468 1468 1468 1468 1468 1468 1468 1468 1468 1468 1468 1468 1469 1469 1470 1470 1471 1472 1473 1473 1474 1475 1476 1477 1478 1479 1480 1481 1481 1482 1483 1484 1484 1485
1478 1477 1475 1473 1471 1470 1468 1467 1466 1465 1465 1465 1464 1464 1464 1464 1464 1464 1464 1464 1464 1464 1464 1465 1465 1466 1466 1467 1468 1469 1470 1470 1471 1472 1473 1473 1474 1475 1476 1477 1478 1478 1479
1477 1475 1473 1471 1469 1467 1466 1464 1463 1462 1462 1461 1461 1461 1461 1460 1460 1460 1460 1460 1460 1460 1460 1460 1460 1461 1461 1462 1463 1463 1464 1465 1465 1466 1466 1467 1468 1469 1470 1471 1471 1472 1473
1475 1473 1471 1469 1467 1465 1463 1462 1460 1459 1459 1458 1458 1457 1457 1456 1456 1455 1455 1455 1455 1455 1455 1455 1455 1455 1456 1457 1457 1458 1458 1459 1459 1460 1460 1461 1462 1462 1463 1464 1465 1466 1466
1474 1472 1469 1467 1465 1463 1461 1459 1457 1457 1456 1455 1454 1454 1453 1453 1452 1451 1451 1451 1451 1451 1451 1450 1451 1450 1451 1451 1452 1452 1453 1453 1453 1453 1454 1454 1455 1455 1456 1457 1458 1459 1459
1472 1469 1467 1465 1463 1461 1459 1457 1455 1454 1453 1452 1451 1450 1450 1449 1448 1448 1447 1447 1446 1446 1446 1445 1445 1445 1445 1446 1446 1447 1447 1447 1447 1447 1448 1449 1448 1449 1450 1450 1451 1452 1452
1470 1468 1465 1463 1460 1458 1456 1454 1452 1451 1450 1449 1448 1447 1446 1445 1444 1444 1443 1443 1442 1442 1441 1441 1440 1440 1440 1440 1441 1441 1441 1440 1441 1441 1442 1442 1442 1443 1444 1445 1444 1445 1445
1467 1465 1462 1460 1458 1456 1454 1452 1450 1448 1447 1446 1445 1444 1443 1442 1441 1440 1440 1439 1438 1437 1437 1436 1436 1435 1435 1435 1436 1436 1435 1435 1435 1435 1435 1436 1436 1437 1438 1439 1439 1439 1439
1464 1462 1460 1457 1455 1453 1451 1449 1448 1446 1445 1443 1442 1441 1440 1439 1438 1437 1436 1435 1435 1434 1433 1432 1432 1431 1431 1431 1432 1431 1431 1430 1429 1429 1429 1430 1431 1432 1432 1433 1433 1433 1434
1462 1459 1457 1455 1453 1451 1449 1447 1445 1444 1442 1440 1439 1438 1437 1436 1435 1434 1433 1432 1431 1430 1429 1428 1428 1428 1427 1427 1427 1427 1426 1426 1425 1424 1425 1425 1425 1426 1427 1428 1428 1428 1429
1459 1457 1455 1452 1450 1448 1446 1444 1443 1441 1439 1438 1436 1435 1434 1433 1432 1431 1430 1429 1428 1427 1426 1425 1425 1424 1424 1423 1423 1422 1421 1421 1420 1420 1420 1420 1421 1421 1421 1422 1422 1423 1423
1457 1454 1452 1450 1448 1446 1444 1442 1440 1438 1437 1435 1433 1432 1431 1430 1429 1428 1427 1426 1425 1424 1423 1422 1422 1421 1421 1420 1419 1419 1418 1417 1416 1416 1416 1416 1416 1416 1416 1417 1417 1417 1417
1455 1452 1450 1447 1445 1443 1442 1440 1438 1436 1434 1433 1431 1430 1429 1428 1426 1425 1425 1423 1422 1422 1421 1420 1419 1418 1417 1417 1416 1415 1414 1414 1413 1413 1412 1412 1412 1412 1412 1412 1412 1412 1413
1452 1450 1448 1445 1443 1441 1439 1438 1436 1434 1432 1430 1429 1428 1427 1425 1424 1422 1421 1420 1420 1418 1417 1416 1416 1415 1415 1414 1413 1412 1412 1411 1410 1410 1409 1408 1408 1408 1408 1408 1408 1408 1408